Location: Newark
(49.9828°N, 3.1606°E)
Time: 00:21:05
(UTC+00:00)

Envisat - Pass Details

Date: 26 January 2020
Orbit: 764 x 766 km, 98.1° (Epoch: 27 February)

Event Time Altitude Azimuth Distance (km) Brightness Sun altitude
Rises 05:33:07 0° 23° (NNE) 3,245 6.5 -18.5°
Reaches altitude 10° 05:35:51 10° 37° (NE) 2,313 5.9 -18.1°
Maximum altitude 05:40:01 25° 92° (E) 1,520 5.4 -17.4°
Drops below altitude 10° 05:44:08 10° 147° (SSE) 2,298 6.1 -16.8°
Sets 05:46:49 0° 160° (SSE) 3,219 6.7 -16.4°
